Location: Newark
(45.5000°N, 11.4167°E)
Time: 03:51:35
(UTC+00:00)

A-11 Canister half - Pass Details

Date: 20 August 2019
Orbit: 1514 x 1686 km, 47.2° (Epoch: 13 October)

Event Time Altitude Azimuth Distance (km) Brightness Sun altitude
Rises 18:47:40 0° 247° (WSW) 4,694 12.2 -6.3°
Reaches altitude 10° 18:50:40 10° 247° (WSW) 3,731 11.7 -6.8°
Maximum altitude 19:00:10 85° 161° (SSE) 1,601 9.1 -8.2°
Drops below altitude 10° 19:10:04 10° 74° (ENE) 3,875 10.7 -9.8°
Sets 19:13:15 0° 74° (ENE) 4,884 11.2 -10.3°
